Torna al catalogo

ONEWEB-0714

AttivoComunicazioniPO
NORAD 54681·PAYLOAD·🇬🇧 United Kingdom

Lanciato Dec 8, 2022 da Cape Canaveral Space Force Station

Loading…

Prossimi Passaggi (prossime 24 ore)

TLE

AggiornatoSource: CelesTrak SupGP

Epoca: Sep 14, 2026, 15:40 UTC

1 54681C 22166AR  26257.65329120 -.00001144  00000+0 -27739-2 0  2579
2 54681  87.9280 226.1683 0002307  77.3342 315.4022 13.21826806    11

Traccia ONEWEB-0714 in tempo reale con AllMySat

Download on the App Store